Tracy, MN

2:57 PM CDT on June 23, 2017 (GMT -0500)
Tracy

Weather History for KTKC - October, 2013

Change the Weather History Date:

Sunday, October 20, 2013

  Actual Average (KMML) Record (KMML)
Temperature  
Mean Temperature 42 °F -  
Max Temperature 52 °F 57 °F 84 °F (1978)
Min Temperature 34 °F 34 °F 18 °F (1960)
Degree Days  
Heating Degree Days 22    
Moisture  
Dew Point 35 °F    
Average Humidity 81    
Maximum Humidity 92    
Minimum Humidity 67    
Precipitation  
Precipitation 0.06 in - - ()
Sea Level Pressure  
Sea Level Pressure 29.75 in    
Wind  
Wind Speed 7 mph (WNW)    
Max Wind Speed 22 mph    
Max Gust Speed 30 mph    
Visibility 9 miles    
Events Rain    
Averages and records for this station are not official NWS values.
T = Trace of Precipitation, MM = Missing Value Source: NWS Daily Summary

Daily Weather History Graph

Daily Weather History Graph

Search for Another Location

Airport or City:

Trip Planner

Search our weather history database for the weather conditions in past years. The results will help you decide how hot, cold, wet, or windy it might be!

Date:

Astronomy

Oct. 20, 2013 Rise Set
Actual Time 7:44 AM CDT 6:29 PM CDT
Civil Twilight 7:14 AM CDT 6:59 PM CDT
Nautical Twilight 6:40 AM CDT 7:32 PM CDT
Astronomical Twilight 6:07 AM CDT 8:06 PM CDT
Moon 7:34 PM CDT (10/20) 9:26 AM CDT (10/20)
Length of Visible Light 11h 44m
Length of Day
10h 45m
Full, 97% of the Moon is Illuminated
Oct 20
Full
Oct 26
Last Quarter
Nov 3
New
Nov 9
First Quarter
Nov 17
Full

Hourly Weather History & Observations

Time (CDT) Temp. Windchill Dew Point Humidity Pressure Visibility Wind Dir Wind Speed Gust Speed Precip Events Conditions
12:18 AM 36.9 °F - 27.3 °F 68% 29.79 in 10.0 mi Calm Calm - N/A   Overcast
12:38 AM 36.9 °F - 28.0 °F 70% 29.78 in 10.0 mi Calm Calm - N/A   Overcast
12:58 AM 36.0 °F - 28.8 °F 75% 29.77 in 10.0 mi Calm Calm - N/A   Overcast
1:17 AM 36.0 °F - 28.8 °F 75% 29.76 in 10.0 mi Calm Calm - N/A   Overcast
1:38 AM 36.7 °F - 28.8 °F 73% 29.75 in 10.0 mi Calm Calm - N/A   Overcast
1:57 AM 36.9 °F - 29.7 °F 75% 29.76 in 7.0 mi Calm Calm - N/A   Drizzle
2:18 AM 36.5 °F - 30.9 °F 80% 29.75 in 7.0 mi Calm Calm - N/A Rain Light Rain
2:37 AM 36.3 °F 32.5 °F 31.3 °F 82% 29.75 in 5.0 mi South 4.6 mph - N/A   Drizzle
2:58 AM 36.1 °F 28.7 °F 31.1 °F 82% 29.74 in 10.0 mi South 10.4 mph - N/A   Light Drizzle
3:18 AM 36.3 °F 29.5 °F 31.6 °F 83% 29.73 in 10.0 mi South 9.2 mph - N/A   Drizzle
3:38 AM 36.5 °F 30.3 °F 31.5 °F 82% 29.72 in 10.0 mi South 8.1 mph - N/A   Light Drizzle
3:58 AM 36.7 °F 29.9 °F 31.5 °F 81% 29.70 in 10.0 mi SSE 9.2 mph - N/A   Light Drizzle
4:17 AM 36.7 °F 32.0 °F 31.3 °F 81% 29.69 in 10.0 mi South 5.8 mph - N/A   Overcast
4:38 AM 36.9 °F - 31.5 °F 81% 29.69 in 10.0 mi Calm Calm - N/A   Overcast
4:58 AM 37.0 °F 31.6 °F 31.6 °F 81% 29.68 in 10.0 mi SSE 6.9 mph - N/A   Overcast
5:18 AM 37.0 °F 30.4 °F 31.6 °F 81% 29.66 in 10.0 mi SSE 9.2 mph - N/A   Overcast
5:37 AM 37.4 °F 31.4 °F 31.8 °F 80% 29.65 in 10.0 mi SSE 8.1 mph - N/A   Overcast
5:57 AM 37.4 °F 33.8 °F 31.5 °F 79% 29.65 in 10.0 mi South 4.6 mph - N/A   Overcast
6:18 AM 37.9 °F 34.4 °F 31.1 °F 76% 29.65 in 10.0 mi South 4.6 mph - N/A   Overcast
6:38 AM 37.9 °F - 30.9 °F 76% 29.65 in 10.0 mi Calm Calm - N/A   Overcast
6:57 AM 37.4 °F - 31.5 °F 79% 29.64 in 7.0 mi Calm Calm - N/A Rain Rain
7:18 AM 37.6 °F 34.0 °F 31.6 °F 79% 29.65 in 10.0 mi South 4.6 mph - N/A   Light Drizzle
7:38 AM 37.6 °F 31.6 °F 31.8 °F 80% 29.62 in 10.0 mi South 8.1 mph - 0.01 in   Light Drizzle
7:58 AM 37.8 °F 30.7 °F 31.6 °F 79% 29.62 in 10.0 mi South 10.4 mph - 0.01 in   Overcast
8:18 AM 38.3 °F 30.9 °F 31.3 °F 76% 29.61 in 10.0 mi South 11.5 mph 17.3 mph N/A   Mostly Cloudy
8:38 AM 38.7 °F 31.8 °F 31.8 °F 76% 29.62 in 10.0 mi South 10.4 mph - N/A   Mostly Cloudy
8:58 AM 39.6 °F 31.7 °F 32.2 °F 75% 29.62 in 10.0 mi SSW 13.8 mph 19.6 mph N/A   Overcast
9:17 AM 40.8 °F 33.7 °F 33.3 °F 74% 29.62 in 10.0 mi SW 12.7 mph - N/A   Mostly Cloudy
9:38 AM 43.2 °F 37.0 °F 34.7 °F 72% 29.62 in 10.0 mi SW 11.5 mph 19.6 mph N/A   Clear
9:58 AM 45.3 °F 38.7 °F 36.7 °F 72% 29.62 in 10.0 mi WSW 15.0 mph 18.4 mph N/A   Clear
10:17 AM 47.5 °F - 38.1 °F 70% 29.62 in 10.0 mi West 8.1 mph 17.3 mph N/A   Clear
10:38 AM 49.1 °F - 39.7 °F 70% 29.62 in 10.0 mi West 6.9 mph 17.3 mph N/A   Clear
10:58 AM 51.1 °F - 41.0 °F 68% 29.62 in 10.0 mi West 6.9 mph 16.1 mph N/A   Clear
11:17 AM 51.8 °F - 41.2 °F 67% 29.62 in 10.0 mi West 13.8 mph 25.3 mph N/A   Scattered Clouds
11:38 AM 50.5 °F - 40.6 °F 69% 29.63 in 10.0 mi West 11.5 mph 25.3 mph N/A   Mostly Cloudy
11:58 AM 50.0 °F - 40.8 °F 71% 29.64 in 10.0 mi West 13.8 mph 20.7 mph N/A   Overcast
12:18 PM 50.0 °F - 40.6 °F 70% 29.64 in 10.0 mi West 12.7 mph 21.9 mph N/A   Overcast
12:37 PM 50.0 °F - 41.0 °F 71% 29.64 in 10.0 mi West 11.5 mph 23.0 mph N/A   Overcast
12:58 PM 49.5 °F - 41.0 °F 73% 29.65 in 10.0 mi West 16.1 mph 23.0 mph N/A   Overcast
1:17 PM 49.1 °F - 41.5 °F 75% 29.65 in 10.0 mi WNW 13.8 mph 21.9 mph N/A   Overcast
1:38 PM 48.2 °F - 41.9 °F 79% 29.66 in 10.0 mi West 9.2 mph 20.7 mph N/A   Light Drizzle
1:58 PM 47.8 °F - 41.5 °F 79% 29.66 in 10.0 mi WNW 15.0 mph 19.6 mph N/A   Light Drizzle
2:18 PM 47.5 °F - 42.1 °F 82% 29.66 in 7.0 mi NW 13.8 mph 21.9 mph N/A   Drizzle
2:38 PM 46.8 °F - 43.0 °F 87% 29.67 in 10.0 mi NW 10.4 mph - N/A   Drizzle
2:58 PM 47.3 °F - 43.3 °F 86% 29.68 in 7.0 mi NW 10.4 mph - N/A Rain Rain
3:17 PM 46.2 °F 38.3 °F 43.7 °F 91% 29.69 in 5.0 mi NW 21.9 mph 28.8 mph 0.05 in Rain Light Rain
3:37 PM 43.7 °F 36.3 °F 41.5 °F 92% 29.71 in 2.5 mi NNW 16.1 mph 25.3 mph 0.05 in Rain Light Rain
3:58 PM 42.3 °F 33.6 °F 40.1 °F 92% 29.74 in 2.5 mi NW 19.6 mph 29.9 mph 0.05 in   Drizzle
4:18 PM 41.4 °F 31.9 °F 39.2 °F 92% 29.75 in 7.0 mi NW 21.9 mph 26.5 mph N/A   Overcast
4:38 PM 40.8 °F 32.3 °F 37.8 °F 89% 29.77 in 10.0 mi NNW 17.3 mph 26.5 mph N/A   Overcast
4:58 PM 40.3 °F 30.7 °F 36.9 °F 88% 29.78 in 10.0 mi NW 20.7 mph 26.5 mph N/A   Overcast
5:18 PM 40.1 °F 31.3 °F 36.5 °F 87% 29.79 in 10.0 mi NW 17.3 mph 24.2 mph N/A   Overcast
5:38 PM 39.9 °F 32.1 °F 35.8 °F 85% 29.81 in 10.0 mi NNW 13.8 mph 23.0 mph N/A   Overcast
5:58 PM 39.6 °F 30.6 °F 34.9 °F 83% 29.82 in 10.0 mi NNW 17.3 mph 28.8 mph N/A   Overcast
6:18 PM 39.6 °F 31.3 °F 34.7 °F 83% 29.84 in 10.0 mi NNW 15.0 mph 24.2 mph N/A   Overcast
6:37 PM 39.6 °F 32.1 °F 34.7 °F 83% 29.86 in 10.0 mi NNW 12.7 mph 18.4 mph N/A   Overcast
6:57 PM 39.4 °F 32.7 °F 34.9 °F 84% 29.87 in 10.0 mi NNW 10.4 mph - N/A   Overcast
7:18 PM 39.2 °F 32.0 °F 35.1 °F 85% 29.88 in 10.0 mi NNW 11.5 mph 16.1 mph N/A   Overcast
7:38 PM 38.8 °F 33.2 °F 34.9 °F 86% 29.89 in 10.0 mi NNW 8.1 mph - N/A   Overcast
7:58 PM 38.8 °F 31.6 °F 35.2 °F 87% 29.90 in 10.0 mi NW 11.5 mph 16.1 mph N/A   Light Drizzle
8:17 PM 38.5 °F 30.7 °F 35.2 °F 88% 29.91 in 10.0 mi NW 12.7 mph 16.1 mph N/A   Overcast
8:37 PM 38.5 °F 30.7 °F 35.1 °F 87% 29.92 in 10.0 mi NW 12.7 mph - N/A   Overcast
8:58 PM 38.3 °F 31.4 °F 35.1 °F 88% 29.92 in 10.0 mi NW 10.4 mph - N/A   Overcast
9:18 PM 38.3 °F 30.9 °F 34.9 °F 87% 29.93 in 10.0 mi NNW 11.5 mph 18.4 mph N/A   Overcast
9:38 PM 37.8 °F 30.7 °F 34.9 °F 89% 29.94 in 7.0 mi NNW 10.4 mph - N/A Rain Heavy Rain
9:58 PM 35.8 °F 28.3 °F 33.8 °F 92% 29.95 in 10.0 mi NW 10.4 mph - N/A   Overcast
10:18 PM 36.1 °F 28.2 °F 33.1 °F 89% 29.96 in 10.0 mi NW 11.5 mph 17.3 mph N/A   Overcast
10:38 PM 36.1 °F 27.7 °F 32.4 °F 86% 29.96 in 10.0 mi NW 12.7 mph 18.4 mph N/A   Overcast
10:57 PM 35.6 °F 27.5 °F 32.0 °F 87% 29.96 in 10.0 mi NNW 11.5 mph - N/A   Overcast
11:18 PM 34.3 °F 26.5 °F 31.6 °F 90% 29.96 in 10.0 mi NNW 10.4 mph - N/A   Scattered Clouds
11:37 PM 34.3 °F - 32.0 °F 91% 29.97 in 10.0 mi Calm Calm - N/A   Mostly Cloudy
11:58 PM 34.2 °F 26.8 °F 31.6 °F 90% 29.97 in 10.0 mi NW 9.2 mph - N/A   Mostly Cloudy